�������l�o���
Date,Time,MP-1(��Sv/h),MP-2(��Sv/h),MP-3(��Sv/h),MP-4(��Sv/h),MP-5(��Sv/h),MP-6(��Sv/h),MP-7(��Sv/h),MP-8(��Sv/h),����,����(m/s),���J
2020/11/16,00:00,0.678,0.978,0.620,1.212,0.868,0.386,0.679,0.638,��쐼,6.7,��
2020/11/16,00:10,0.678,0.978,0.617,1.212,0.869,0.387,0.679,0.637,�쐼,6.7,��
2020/11/16,00:20,0.679,0.976,0.618,1.211,0.867,0.386,0.680,0.637,�쐼,6.5,��
2020/11/16,00:30,0.677,0.977,0.618,1.210,0.867,0.386,0.680,0.638,�쐼,5.8,��
2020/11/16,00:40,0.676,0.978,0.617,1.208,0.866,0.387,0.679,0.638,�쐼,6.2,��
2020/11/16,00:50,0.676,0.979,0.616,1.209,0.866,0.386,0.679,0.638,�쐼,6.2,��
2020/11/16,01:00,0.677,0.976,0.618,1.209,0.867,0.387,0.679,0.637,�쐼,4.9,��
2020/11/16,01:10,0.679,0.978,0.618,1.209,0.866,0.387,0.681,0.638,��쐼,4.2,��
2020/11/16,01:20,0.678,0.976,0.618,1.211,0.865,0.386,0.680,0.638,��쐼,5.3,��
2020/11/16,01:30,0.678,0.978,0.617,1.209,0.869,0.387,0.678,0.637,�쐼,4.6,��
2020/11/16,01:40,0.678,0.976,0.619,1.213,0.866,0.387,0.680,0.637,�쐼,4.6,��
2020/11/16,01:50,0.678,0.976,0.617,1.209,0.865,0.387,0.678,0.638,��쐼,5.1,��
2020/11/16,02:00,0.678,0.975,0.617,1.212,0.868,0.388,0.680,0.637,��쐼,5.6,��
2020/11/16,02:10,0.677,0.976,0.617,1.210,0.867,0.387,0.679,0.637,�쐼,6.0,��
2020/11/16,02:20,0.677,0.978,0.616,1.213,0.869,0.388,0.679,0.637,�쐼,6.5,��
2020/11/16,02:30,0.677,0.978,0.619,1.213,0.867,0.387,0.681,0.637,�쐼,7.0,��
2020/11/16,02:40,0.678,0.976,0.618,1.211,0.866,0.387,0.680,0.639,�쐼,6.3,��
2020/11/16,02:50,0.677,0.978,0.620,1.209,0.870,0.387,0.680,0.637,�쐼,5.5,��
2020/11/16,03:00,0.678,0.977,0.618,1.210,0.868,0.385,0.682,0.638,�쐼,4.6,��
2020/11/16,03:10,0.677,0.977,0.617,1.210,0.869,0.388,0.679,0.638,�쐼,5.6,��
2020/11/16,03:20,0.679,0.978,0.618,1.210,0.867,0.387,0.680,0.639,�쐼,5.9,��
2020/11/16,03:30,0.676,0.978,0.617,1.211,0.866,0.387,0.680,0.639,�쐼,5.5,��
2020/11/16,03:40,0.676,0.976,0.617,1.209,0.868,0.386,0.682,0.639,�쐼,4.7,��
2020/11/16,03:50,0.678,0.976,0.616,1.212,0.868,0.387,0.681,0.637,�쐼,5.6,��
2020/11/16,04:00,0.678,0.978,0.618,1.209,0.869,0.386,0.680,0.637,�쐼,6.5,��
2020/11/16,04:10,0.677,0.976,0.618,1.211,0.867,0.387,0.680,0.638,�쐼,6.9,��
2020/11/16,04:20,0.677,0.980,0.618,1.214,0.868,0.387,0.680,0.638,��쐼,8.0,��
2020/11/16,04:30,0.678,0.976,0.618,1.213,0.868,0.387,0.681,0.638,�쐼,7.6,��
2020/11/16,04:40,0.677,0.977,0.617,1.213,0.867,0.388,0.681,0.638,�쐼,8.7,��
2020/11/16,04:50,0.679,0.978,0.618,1.211,0.868,0.388,0.680,0.638,�쐼,9.2,��
2020/11/16,05:00,0.678,0.977,0.618,1.210,0.869,0.387,0.681,0.639,�쐼,8.3,��
2020/11/16,05:10,0.678,0.979,0.618,1.210,0.867,0.386,0.679,0.636,�쐼,8.4,��
2020/11/16,05:20,0.678,0.979,0.618,1.212,0.868,0.388,0.679,0.638,�쐼,8.7,��
2020/11/16,05:30,0.679,0.978,0.617,1.210,0.865,0.387,0.681,0.638,�쐼,8.1,��
2020/11/16,05:40,0.678,0.977,0.616,1.212,0.867,0.387,0.681,0.640,�쐼,6.5,��
2020/11/16,05:50,0.677,0.976,0.617,1.210,0.868,0.386,0.680,0.637,�쐼,6.4,��
2020/11/16,06:00,0.678,0.976,0.619,1.211,0.868,0.387,0.681,0.637,�쐼,7.1,��
2020/11/16,06:10,0.678,0.979,0.618,1.208,0.869,0.387,0.681,0.638,���쐼,7.7,��
2020/11/16,06:20,0.678,0.977,0.617,1.210,0.867,0.387,0.679,0.637,�쐼,8.7,��
2020/11/16,06:30,0.678,0.976,0.618,1.211,0.866,0.386,0.680,0.640,�쐼,8.4,��
2020/11/16,06:40,0.678,0.977,0.619,1.210,0.866,0.387,0.681,0.638,�쐼,8.9,��
2020/11/16,06:50,0.678,0.976,0.619,1.210,0.867,0.387,0.682,0.638,���쐼,9.3,��
2020/11/16,07:00,0.677,0.979,0.621,1.209,0.868,0.387,0.681,0.637,���쐼,10.3,��
2020/11/16,07:10,0.679,0.980,0.617,1.211,0.868,0.388,0.681,0.638,�쐼,8.7,��
2020/11/16,07:20,0.681,0.979,0.621,1.212,0.867,0.387,0.680,0.639,�쐼,8.0,��
2020/11/16,07:30,0.677,0.978,0.618,1.211,0.869,0.388,0.679,0.638,���쐼,7.4,��
2020/11/16,07:40,0.678,0.978,0.617,1.211,0.868,0.387,0.680,0.639,�쐼,6.8,��
2020/11/16,07:50,0.677,0.978,0.618,1.211,0.869,0.389,0.680,0.639,�쐼,5.3,��
2020/11/16,08:00,0.679,0.978,0.620,1.212,0.867,0.388,0.680,0.638,���쐼,5.0,��
2020/11/16,08:10,0.678,0.977,0.618,1.211,0.866,0.388,0.679,0.639,�쐼,6.4,��
2020/11/16,08:20,0.681,0.978,0.618,1.210,0.868,0.388,0.680,0.639,�쐼,7.5,��
2020/11/16,08:30,0.680,0.977,0.621,1.212,0.869,0.386,0.681,0.639,�쐼,6.8,��
2020/11/16,08:40,0.680,0.979,0.618,1.211,0.867,0.387,0.680,0.637,�쐼,6.1,��
2020/11/16,08:50,0.680,0.974,0.619,1.212,0.867,0.388,0.681,0.637,�쐼,5.1,��
2020/11/16,09:00,0.679,0.974,0.620,1.211,0.866,0.387,0.680,0.640,���쐼,5.2,��
2020/11/16,09:10,0.679,0.972,0.620,1.210,0.868,0.387,0.679,0.639,�쐼,7.1,��
2020/11/16,09:20,0.678,0.970,0.619,1.209,0.866,0.387,0.680,0.639,�쐼,6.0,��
2020/11/16,09:30,0.679,0.970,0.618,1.212,0.869,0.387,0.679,0.638,�쐼,5.4,��
2020/11/16,09:40,0.679,0.970,0.619,1.208,0.866,0.385,0.680,0.638,�쐼,5.6,��
2020/11/16,09:50,0.678,0.970,0.619,1.214,0.871,0.387,0.682,0.638,�쐼,4.6,��
2020/11/16,10:00,0.680,0.972,0.619,1.211,0.869,0.386,0.680,0.639,���쐼,3.3,��
2020/11/16,10:10,0.680,0.972,0.619,1.211,0.867,0.387,0.679,0.638,���쐼,6.2,��
2020/11/16,10:20,0.681,0.973,0.619,1.211,0.867,0.387,0.681,0.638,���쐼,5.9,��
2020/11/16,10:30,0.679,0.974,0.617,1.214,0.867,0.386,0.679,0.639,���쐼,4.9,��
2020/11/16,10:40,0.681,0.971,0.618,1.212,0.867,0.387,0.681,0.638,��,7.6,��
2020/11/16,10:50,0.680,0.971,0.618,1.213,0.868,0.386,0.680,0.637,���쐼,6.6,��
2020/11/16,11:00,0.679,0.976,0.619,1.213,0.868,0.386,0.679,0.638,���쐼,5.3,��
2020/11/16,11:10,0.680,0.972,0.618,1.214,0.867,0.386,0.681,0.638,���쐼,5.9,��
2020/11/16,11:20,0.679,0.973,0.617,1.213,0.869,0.387,0.681,0.636,��,5.9,��
2020/11/16,11:30,0.680,0.976,0.618,1.212,0.870,0.387,0.681,0.637,���쐼,5.4,��
2020/11/16,11:40,0.679,0.977,0.618,1.214,0.870,0.386,0.682,0.635,���쐼,6.9,��
2020/11/16,11:50,0.678,0.977,0.617,1.215,0.869,0.387,0.680,0.637,���쐼,8.1,��
2020/11/16,12:00,0.680,0.976,0.619,1.213,0.870,0.386,0.681,0.637,��,7.3,��
2020/11/16,12:10,0.680,0.977,0.617,1.213,0.869,0.387,0.683,0.637,��,5.5,��
2020/11/16,12:20,0.681,0.975,0.618,1.215,0.866,0.385,0.681,0.637,��,7.5,��
2020/11/16,12:30,0.681,0.975,0.618,1.215,0.868,0.388,0.684,0.636,��,8.2,��
2020/11/16,12:40,0.678,0.976,0.618,1.216,0.869,0.388,0.681,0.637,��,5.3,��
2020/11/16,12:50,0.681,0.975,0.618,1.214,0.866,0.387,0.681,0.637,��,4.3,��
2020/11/16,13:00,0.677,0.974,0.617,1.215,0.867,0.387,0.682,0.636,���k��,5.4,��
2020/11/16,13:10,0.677,0.974,0.620,1.217,0.868,0.387,0.682,0.638,��,6.9,��
2020/11/16,13:20,0.680,0.973,0.618,1.217,0.867,0.386,0.682,0.636,��,7.2,��
2020/11/16,13:30,0.681,0.974,0.618,1.216,0.867,0.388,0.682,0.636,��,8.9,��
2020/11/16,13:40,0.680,0.974,0.619,1.217,0.870,0.387,0.679,0.636,��,8.0,��
2020/11/16,13:50,0.680,0.974,0.618,1.216,0.870,0.384,0.678,0.636,��,8.3,��
2020/11/16,14:00,0.678,0.974,0.618,1.216,0.869,0.389,0.682,0.638,��,10.0,��
2020/11/16,14:10,0.678,0.974,0.619,1.216,0.869,0.388,0.680,0.638,��,8.6,��
2020/11/16,14:20,0.681,0.974,0.617,1.215,0.869,0.388,0.682,0.636,��,8.6,��
2020/11/16,14:30,0.679,0.974,0.617,1.217,0.868,0.387,0.682,0.636,��,9.4,��
2020/11/16,14:40,0.679,0.977,0.618,1.216,0.869,0.387,0.680,0.635,��,6.7,��
2020/11/16,14:50,0.681,0.976,0.619,1.218,0.869,0.388,0.680,0.636,��,7.7,��
2020/11/16,15:00,0.681,0.976,0.618,1.217,0.872,0.386,0.680,0.638,���쐼,7.8,��
2020/11/16,15:10,0.680,0.977,0.618,1.217,0.870,0.385,0.680,0.638,���쐼,5.9,��
2020/11/16,15:20,0.679,0.976,0.618,1.216,0.871,0.387,0.680,0.636,��,7.1,��
2020/11/16,15:30,0.679,0.979,0.617,1.216,0.868,0.387,0.680,0.638,��,8.4,��
2020/11/16,15:40,0.677,0.981,0.619,1.215,0.870,0.386,0.680,0.636,���쐼,8.0,��
2020/11/16,15:50,0.678,0.978,0.619,1.215,0.869,0.387,0.680,0.637,��,6.8,��
2020/11/16,16:00,0.679,0.977,0.617,1.215,0.867,0.388,0.681,0.639,��,6.6,��
2020/11/16,16:10,0.679,0.976,0.617,1.218,0.868,0.389,0.679,0.639,��,6.9,��
2020/11/16,16:20,0.679,0.979,0.615,1.214,0.869,0.389,0.681,0.641,��,5.1,��
2020/11/16,16:30,0.677,0.979,0.619,1.216,0.868,0.389,0.683,0.639,��,5.8,��
2020/11/16,16:40,0.678,0.981,0.619,1.214,0.870,0.387,0.683,0.639,��,5.1,��
2020/11/16,16:50,0.680,0.981,0.619,1.214,0.867,0.388,0.681,0.641,��,5.4,��
2020/11/16,17:00,0.680,0.981,0.622,1.216,0.868,0.387,0.683,0.639,��,6.1,��
2020/11/16,17:10,0.682,0.981,0.621,1.216,0.869,0.389,0.681,0.639,��,6.6,��
2020/11/16,17:20,0.681,0.981,0.620,1.215,0.871,0.388,0.683,0.639,��,6.7,��
2020/11/16,17:30,0.681,0.981,0.620,1.214,0.872,0.387,0.682,0.638,��,6.7,��
2020/11/16,17:40,0.682,0.981,0.620,1.217,0.870,0.388,0.682,0.639,��,7.6,��
2020/11/16,17:50,0.679,0.978,0.619,1.215,0.870,0.388,0.681,0.639,��,6.9,��
2020/11/16,18:00,0.680,0.980,0.619,1.214,0.872,0.390,0.682,0.640,��,8.0,��
2020/11/16,18:10,0.681,0.981,0.620,1.216,0.870,0.388,0.682,0.639,��,8.1,��
2020/11/16,18:20,0.683,0.979,0.619,1.217,0.870,0.387,0.682,0.641,��,6.6,��
2020/11/16,18:30,0.681,0.979,0.620,1.214,0.872,0.389,0.681,0.638,��,7.5,��
2020/11/16,18:40,0.681,0.980,0.619,1.215,0.871,0.388,0.681,0.638,��,7.6,��
2020/11/16,18:50,0.682,0.980,0.622,1.217,0.871,0.388,0.681,0.639,���쐼,8.1,��
2020/11/16,19:00,0.680,0.980,0.622,1.218,0.869,0.388,0.682,0.638,��,7.7,��
2020/11/16,19:10,0.682,0.979,0.620,1.216,0.871,0.387,0.682,0.639,���쐼,7.0,��
2020/11/16,19:20,0.680,0.979,0.619,1.215,0.874,0.387,0.682,0.640,���쐼,6.9,��
2020/11/16,19:30,0.680,0.982,0.619,1.216,0.871,0.389,0.681,0.638,���쐼,5.6,��
2020/11/16,19:40,0.680,0.980,0.619,1.216,0.870,0.388,0.681,0.640,��,5.3,��
2020/11/16,19:50,0.681,0.981,0.620,1.216,0.871,0.386,0.681,0.640,���쐼,6.4,��
2020/11/16,20:00,0.679,0.980,0.619,1.216,0.870,0.386,0.682,0.640,��,7.4,��
2020/11/16,20:10,0.681,0.980,0.618,1.216,0.871,0.389,0.683,0.639,��,6.4,��
2020/11/16,20:20,0.679,0.979,0.619,1.216,0.869,0.388,0.681,0.639,��,4.9,��
2020/11/16,20:30,0.680,0.981,0.619,1.216,0.870,0.387,0.683,0.639,���k��,4.2,��
2020/11/16,20:40,0.679,0.981,0.620,1.215,0.872,0.388,0.682,0.640,���k��,3.8,��
2020/11/16,20:50,0.680,0.980,0.618,1.216,0.868,0.388,0.683,0.640,���k��,3.6,��
2020/11/16,21:00,0.680,0.980,0.618,1.215,0.869,0.388,0.682,0.639,���k��,3.8,��
2020/11/16,21:10,0.679,0.980,0.619,1.215,0.871,0.388,0.681,0.640,���k��,4.1,��
2020/11/16,21:20,0.681,0.981,0.618,1.216,0.871,0.387,0.683,0.639,���k��,5.7,��
2020/11/16,21:30,0.681,0.981,0.620,1.215,0.869,0.388,0.681,0.639,���k��,5.0,��
2020/11/16,21:40,0.679,0.980,0.620,1.215,0.872,0.387,0.681,0.638,��,5.1,��
2020/11/16,21:50,0.681,0.979,0.619,1.216,0.871,0.388,0.680,0.639,��,4.8,��
2020/11/16,22:00,0.680,0.980,0.619,1.215,0.870,0.387,0.682,0.637,��,4.2,��
2020/11/16,22:10,0.680,0.979,0.618,1.216,0.869,0.387,0.680,0.639,��,3.3,��
2020/11/16,22:20,0.679,0.981,0.619,1.216,0.869,0.388,0.681,0.638,��,2.5,��
2020/11/16,22:30,0.680,0.980,0.619,1.217,0.871,0.387,0.681,0.638,���k��,1.4,��
2020/11/16,22:40,0.680,0.980,0.618,1.213,0.870,0.389,0.680,0.638,�k��,1.7,��
2020/11/16,22:50,0.681,0.980,0.618,1.212,0.870,0.388,0.681,0.640,���k��,3.3,��
2020/11/16,23:00,0.680,0.979,0.619,1.215,0.870,0.387,0.679,0.640,�k��,3.4,��
2020/11/16,23:10,0.680,0.977,0.618,1.216,0.870,0.388,0.682,0.638,�k��,3.0,��
2020/11/16,23:20,0.680,0.980,0.620,1.214,0.869,0.388,0.680,0.639,���k��,2.6,��
2020/11/16,23:30,0.679,0.982,0.619,1.214,0.869,0.387,0.679,0.638,���k��,3.3,��
2020/11/16,23:40,0.679,0.978,0.620,1.215,0.871,0.389,0.681,0.638,���k��,3.4,��
2020/11/16,23:50,0.679,0.979,0.619,1.216,0.869,0.387,0.679,0.639,���k��,3.2,��
